Tracking 29892 objects as of 21-Nov-2024
HD Live streaming from Space Station
objects crossing your sky now

TZINGHUA 1

Track TZINGHUA 1 now!
10-day predictions
TZINGHUA 1 is classified as:


NORAD ID: 26385
Int'l Code: 2000-033B
Perigee: 667.4 km
Apogee: 690.1 km
Inclination: 97.8 °
Period: 98.2 minutes
Semi major axis: 7049 km
RCS: 0.4926 m2 (medium)
Launch date: June 28, 2000
Source: People's Republic of China (PRC)
Launch site: PLESETSK MISSILE AND SPACE COMPLEX (PKMTR)
Your satellite tracking list
Your tracking list is empty




NASA's NSSDC Master Catalog

Two Line Element Set (TLE):
1 26385U 00033B   24325.81587374  .00001552  00000-0  28649-3 0  9994
2 26385  97.8160 312.1955 0016059 124.5530 235.7193 14.66709075302789
Source of the keplerian elements: AFSPC